Estació meteorològica de Els Cortals - St. Hilari Sacalm (La Selva, Guilleries)

Consulta les dades en temps real de l'estació meteorològica de Els Cortals - St. Hilari Sacalm





Hora UTC 14:55
Temperatura 29.4 ºC
Humitat 59.0 %
Pressió 1012.5 hPa
Pluja 0.0 mm
Velocitat vent 0.0 km/h
Direcció vent WSW

Dades diàries 2026-09-04



Hora UTC (hivern +1h; estiu +2h)
Temperatura (ºC) Humitat (%) Pressió (hPa) Velocitat vent (km/h) Precipitació (mm)
Hora UTC Aire Humitat Pressió Vel. Dir. Vel. Max Dir. Intent. màx 5 min.
00:05 21.4 76.0 1015.2 0.0 W 0.0 0.0
00:10 21.4 76.0 1015.2 0.0 W 0.0 0.0
00:15 21.4 76.0 1015.1 0.0 W 0.0 0.0
00:20 21.4 76.0 1015.1 0.0 W 0.0 0.0
00:25 21.5 75.0 1015.0 0.0 W 0.0 0.0
00:30 21.6 75.0 1015.0 0.0 W 0.0 0.0
00:35 21.6 75.0 1015.0 0.0 W 0.0 0.0
00:40 21.6 75.0 1014.9 0.0 W 0.0 0.0
00:45 21.5 75.0 1014.9 0.0 W 0.0 0.0
00:50 21.3 75.0 1014.9 0.0 W 0.0 0.0
00:55 21.2 76.0 1014.9 0.0 W 0.0 0.0
01:00 21.4 76.0 1014.8 0.0 W 0.0 0.0
01:05 21.6 75.0 1014.8 0.0 W 0.0 0.0
01:10 21.6 74.0 1014.6 0.0 W 0.0 0.0
01:15 21.6 74.0 1014.6 0.0 W 0.0 0.0
01:20 21.7 73.0 1014.6 0.0 W 0.0 0.0
01:25 21.6 73.0 1014.6 0.0 W 0.0 0.0
01:30 21.6 73.0 1014.5 0.0 W 0.0 0.0
01:35 21.6 72.0 1014.5 0.0 W 0.0 0.0
01:40 21.4 72.0 1014.5 0.0 W 0.0 0.0
01:45 21.3 72.0 1014.4 0.0 W 0.0 0.0
01:50 21.3 72.0 1014.3 0.0 W 0.0 0.0
01:55 21.3 72.0 1014.3 0.0 W 0.0 0.0
02:00 21.4 71.0 1014.2 0.0 W 0.0 0.0
02:05 21.4 71.0 1014.2 0.0 W 0.0 0.0
02:10 21.6 71.0 1014.1 0.0 W 0.0 0.0
02:15 21.4 71.0 1014.1 0.0 W 0.0 0.0
02:20 21.2 71.0 1014.0 0.0 W 0.0 0.0
02:25 21.1 72.0 1014.0 0.0 W 0.0 0.0
02:30 21.1 72.0 1014.0 0.0 W 0.0 0.0
02:35 21.2 72.0 1014.0 0.0 W 0.0 0.0
02:40 21.2 72.0 1013.9 0.0 W 0.0 0.0
02:45 21.2 72.0 1014.0 0.0 W 0.0 0.0
02:50 21.3 72.0 1013.9 0.0 W 0.0 0.0
02:55 21.3 71.0 1013.9 0.0 W 0.0 0.0
03:00 21.3 71.0 1013.9 0.0 W 0.0 0.0
03:05 21.4 71.0 1013.9 0.0 W 0.0 0.0
03:10 21.6 70.0 1013.9 0.0 W 0.0 0.0
03:15 21.6 70.0 1013.8 0.0 W 0.0 0.0
03:20 21.3 71.0 1013.7 0.0 W 0.0 0.0
03:25 21.2 71.0 1013.7 0.0 W 0.0 0.0
03:30 21.0 72.0 1013.7 0.0 W 0.0 0.0
03:35 21.0 71.0 1013.6 0.0 W 0.0 0.0
03:40 21.0 72.0 1013.6 0.0 W 0.0 0.0
03:45 20.9 72.0 1013.6 0.0 W 0.0 0.0
03:50 20.8 72.0 1013.6 0.0 W 0.0 0.0
03:55 20.7 74.0 1013.5 0.0 W 0.0 0.0
04:00 20.4 75.0 1013.4 0.0 W 0.0 0.0
04:05 20.4 76.0 1013.4 0.0 W 0.0 0.0
04:10 20.3 76.0 1013.4 0.0 W 0.0 0.0
04:15 20.1 76.0 1013.3 0.0 W 0.0 0.0
04:20 19.9 75.0 1013.3 0.0 W 0.0 0.0
04:25 20.1 75.0 1013.4 0.0 W 0.0 0.0
04:30 20.3 73.0 1013.4 0.0 W 0.0 0.0
04:35 20.3 73.0 1013.5 0.0 W 0.0 0.0
04:40 20.3 73.0 1013.4 0.0 W 0.0 0.0
04:45 20.2 73.0 1013.5 0.0 W 0.0 0.0
04:50 20.1 73.0 1013.4 0.0 W 0.0 0.0
04:55 20.1 73.0 1013.5 0.0 W 0.0 0.0
05:00 20.2 73.0 1013.4 0.0 W 0.0 0.0
05:05 20.4 73.0 1013.4 0.0 W 0.0 0.0
05:10 20.4 73.0 1013.4 0.0 W 0.0 0.0
05:15 20.6 73.0 1013.4 0.0 W 0.0 0.0
05:20 20.7 73.0 1013.3 0.0 W 0.0 0.0
05:25 20.8 74.0 1013.3 0.0 W 0.0 0.0
05:30 20.9 74.0 1013.2 0.0 W 0.0 0.0
05:35 21.1 74.0 1013.2 0.0 W 0.0 0.0
05:40 21.2 73.0 1013.1 0.0 W 0.0 0.0
05:45 21.3 73.0 1013.1 0.0 W 0.0 0.0
05:50 21.5 73.0 1013.1 0.0 WSW 0.0 0.0
05:55 21.8 72.0 1013.2 0.0 WSW 0.0 0.0
06:00 22.2 71.0 1013.3 0.0 W 0.0 0.0
06:05 22.6 70.0 1013.2 0.0 WSW 0.0 0.0
06:10 23.1 68.0 1013.3 0.0 WSW 0.0 0.0
06:15 23.4 68.0 1013.3 0.0 WSW 0.0 0.0
06:20 23.7 67.0 1013.2 0.0 WSW 0.0 0.0
06:25 23.9 67.0 1013.3 0.0 WSW 0.0 0.0
06:30 24.2 66.0 1013.3 0.0 WSW 0.0 0.0
06:35 24.3 65.0 1013.3 0.0 W 0.0 0.0
06:40 24.6 66.0 1013.3 0.0 WSW 0.0 0.0
06:45 24.8 65.0 1013.3 0.0 SSW 0.0 0.0
06:50 24.9 64.0 1013.1 0.0 SSW 0.0 0.0
06:55 25.2 63.0 1013.0 0.0 W 0.0 0.0
07:00 25.4 62.0 1013.3 0.0 WSW 0.0 0.0
07:05 25.7 61.0 1013.3 0.0 SSW 0.0 0.0
07:10 25.9 60.0 1013.2 0.0 WSW 0.0 0.0
07:15 26.1 60.0 1013.4 0.0 SSW 0.0 0.0
07:20 26.3 59.0 1013.1 0.0 WNW 0.0 0.0
07:25 26.7 57.0 1013.3 0.0 SSW 0.0 0.0
07:30 26.8 57.0 1013.4 0.0 SW 0.0 0.0
07:35 26.9 57.0 1013.1 0.0 WSW 0.0 0.0
07:40 27.1 57.0 1013.3 0.0 SSW 0.0 0.0
07:45 27.2 57.0 1013.3 0.0 W 0.0 0.0
07:50 27.2 57.0 1013.3 0.0 SSE 0.0 0.0
07:55 27.3 56.0 1013.3 0.0 WSW 0.0 0.0
08:00 27.4 56.0 1013.4 0.0 SW 0.0 0.0
08:05 27.4 56.0 1013.2 0.0 SW 0.0 0.0
08:10 27.5 57.0 1013.3 0.0 S 0.0 0.0
08:15 27.8 56.0 1013.4 0.0 SSW 0.0 0.0
08:20 27.8 56.0 1013.3 0.0 W 0.0 0.0
08:25 27.9 55.0 1013.3 0.0 WNW 0.0 0.0
08:30 28.2 54.0 1013.4 0.0 S 0.0 0.0
08:35 28.2 53.0 1013.5 0.0 S 0.0 0.0
08:40 28.2 53.0 1013.5 0.0 W 0.0 0.0
08:45 28.2 54.0 1013.5 0.0 SE 0.0 0.0
08:50 28.2 57.0 1013.5 0.0 ENE 0.0 0.0
08:55 28.1 58.0 1013.6 0.0 SE 0.0 0.0
09:00 28.2 58.0 1013.7 0.0 E 0.0 0.0
09:05 28.2 58.0 1013.7 0.0 E 0.0 0.0
09:10 28.3 57.0 1013.6 0.0 E 0.0 0.0
09:15 28.3 57.0 1013.6 0.0 ENE 0.0 0.0
09:20 28.2 57.0 1013.7 0.0 ENE 0.0 0.0
09:25 28.2 58.0 1013.7 0.0 SE 0.0 0.0
09:30 28.3 57.0 1013.6 0.0 ESE 0.0 0.0
09:35 28.4 56.0 1013.7 0.0 E 0.0 0.0
09:40 28.4 56.0 1013.8 0.0 E 0.0 0.0
09:45 28.4 56.0 1013.8 0.0 NNE 0.0 0.0
09:50 28.4 56.0 1013.5 0.0 NE 0.0 0.0
09:55 28.6 55.0 1013.5 0.0 E 0.0 0.0
10:00 28.7 55.0 1013.7 0.0 ESE 0.0 0.0
10:05 28.7 54.0 1013.9 0.0 ENE 0.0 0.0
10:10 28.8 54.0 1013.7 0.0 ENE 0.0 0.0
10:15 28.6 54.0 1013.7 0.0 E 0.0 0.0
10:20 28.5 54.0 1013.7 0.0 S 0.0 0.0
10:25 28.5 54.0 1013.7 0.0 E 0.0 0.0
10:30 28.4 55.0 1013.7 0.0 E 0.0 0.0
10:35 28.5 55.0 1013.7 0.0 ENE 0.0 0.0
10:40 28.6 54.0 1013.5 0.0 NE 0.0 0.0
10:45 28.7 54.0 1013.4 0.0 ENE 0.0 0.0
10:50 28.8 54.0 1013.3 0.0 SSE 0.0 0.0
10:55 28.8 54.0 1013.4 0.0 ENE 0.0 0.0
11:00 28.8 53.0 1013.5 0.0 ESE 0.0 0.0
11:05 28.8 54.0 1013.2 0.0 SE 0.0 0.0
11:10 28.7 54.0 1013.2 0.0 E 0.0 0.0
11:15 28.8 55.0 1013.2 0.0 ENE 0.0 0.0
11:20 29.0 54.0 1013.1 0.0 E 0.0 0.0
11:25 29.0 54.0 1013.2 0.0 ENE 0.0 0.0
11:30 29.1 54.0 1013.1 0.0 E 0.0 0.0
11:35 29.3 54.0 1013.0 0.0 E 0.0 0.0
11:40 29.3 53.0 1013.3 0.0 S 0.0 0.0
11:45 29.4 54.0 1013.3 0.0 E 0.0 0.0
11:50 29.4 54.0 1013.2 0.0 SSE 0.0 0.0
11:55 29.6 54.0 1013.2 0.0 NE 0.0 0.0
12:00 29.5 55.0 1013.2 0.0 NNE 0.0 0.0
12:05 29.6 55.0 1013.2 0.0 SE 0.0 0.0
12:10 29.7 55.0 1013.2 0.0 E 0.0 0.0
12:15 29.8 55.0 1013.2 0.0 E 0.0 0.0
12:20 29.8 56.0 1013.1 0.0 E 0.0 0.0
12:25 30.0 55.0 1013.2 0.0 ENE 0.0 0.0
12:30 30.0 56.0 1012.9 0.0 ENE 0.0 0.0
12:35 30.1 55.0 1013.0 0.0 E 0.0 0.0
12:40 30.1 55.0 1013.0 0.0 ENE 0.0 0.0
12:45 30.0 56.0 1012.9 0.0 E 0.0 0.0
12:50 29.8 57.0 1012.8 0.0 ENE 0.0 0.0
12:55 29.8 57.0 1012.8 0.0 NNE 0.0 0.0
13:00 30.0 57.0 1012.7 0.0 NNE 0.0 0.0
13:05 29.9 56.0 1012.8 0.0 ENE 0.0 0.0
13:10 29.7 57.0 1012.8 0.0 ESE 0.0 0.0
13:15 29.7 58.0 1012.8 0.0 E 0.0 0.0
13:20 29.8 58.0 1012.7 0.0 ENE 0.0 0.0
13:25 30.1 57.0 1012.9 0.0 WSW 0.0 0.0
13:30 29.9 56.0 1012.9 0.0 NE 0.0 0.0
13:35 29.8 58.0 1012.8 0.0 SE 0.0 0.0
13:40 29.8 58.0 1012.8 0.0 E 0.0 0.0
13:45 29.7 58.0 1012.7 0.0 SSW 0.0 0.0
13:50 29.8 58.0 1012.7 0.0 SSE 0.0 0.0
13:55 29.8 58.0 1012.7 0.0 SE 0.0 0.0
14:00 29.7 58.0 1012.8 0.0 E 0.0 0.0
14:05 29.6 60.0 1012.8 0.0 E 0.0 0.0
14:10 29.6 59.0 1012.9 0.0 E 0.0 0.0
14:15 29.4 59.0 1012.8 0.0 S 0.0 0.0
14:20 29.4 59.0 1012.7 0.0 SE 0.0 0.0
14:25 29.6 59.0 1012.8 0.0 E 0.0 0.0
14:30 29.7 55.0 1012.8 0.0 ESE 0.0 0.0
14:35 29.6 57.0 1012.6 0.0 ENE 0.0 0.0
14:40 29.7 57.0 1012.5 0.0 E 0.0 0.0
14:45 29.8 58.0 1012.6 0.0 ENE 0.0 0.0
14:50 29.6 58.0 1012.6 0.0 ESE 0.0 0.0
14:55 29.4 59.0 1012.5 0.0 WSW 0.0 0.0
Màxima 30.1 76.0 1015.2 0.0 WSW 0.0 0.0
Mínima 19.9 53.0 1012.5
Total 0.0